Location: Balsareny
(41.8670°N, 1.8830°E)
Time: 04:39:21
(UTC+01:00)

N. Korean satellite - Pass Details

Date: 04 December 2021
Orbit: 447 x 491 km, 97.3° (Epoch: 23 January)

Event Time Altitude Azimuth Distance (km) Brightness Sun altitude
Rises 05:50:40 0° 17° (NNE) 2,462 10.3 -24.1°
Reaches altitude 10° 05:52:46 10° 23° (NNE) 1,582 9.3 -23.7°
Maximum altitude 05:56:02 48° 99° (E) 596 7.3 -23.1°
Drops below altitude 10° 05:59:18 10° 175° (S) 1,567 9.3 -22.5°
Sets 06:01:22 0° 181° (S) 2,435 10.2 -22.1°
